Orbital Elements at Epoch 2459000.5 (2020-May-31.0) TDB
Reference: JPL 31 (heliocentric ecliptic J2000)
Element | Value | Uncertainty (1-sigma) | Units |
e | .2181428438056308 | 3.9496e-08 | |
a | 2.57942062153459 | 9.8596e-09 | au |
q | 2.016738471782147 | 1.0389e-07 | au |
i | 4.397953494026373 | 4.1122e-06 | deg |
node | 139.6747179373142 | 4.3806e-05 | deg |
peri | 5.69775019727166 | 4.503e-05 | deg |
M | 24.69479196463955 | 7.931e-06 | deg |
tp | 2458896.703060263953 (2020-Feb-17.20306026) | 3.3472e-05 | TDB |
period | 1513.148940816443 4.14 | 8.6758e-06 2.375e-08 | d yr |
n | .2379144513069258 | 1.3641e-09 | deg/d |
Q | 3.142102771287033 | 1.201e-08 | au |
|
| | Orbit Determination Parameters
Additional Information
|